Malaga, Spain

2:16 AM CEST on September 01, 2016 (GMT +0200)
Malaga

Weather History for 08482 - February, 2013

Change the Weather History Date:

Thursday, February 21, 2013

  Actual Average Record
Temperature  
Mean Temperature 56 °F -  
Max Temperature 69 °F 64 °F - ()
Min Temperature 44 °F 47 °F - ()
Degree Days  
Heating Degree Days 8    
Growing Degree Days 6 (Base 50)    
Moisture  
Dew Point 47 °F    
Average Humidity 71    
Maximum Humidity 93    
Minimum Humidity 48    
Precipitation  
Precipitation 0.00 in 0.08 in - ()
Sea Level Pressure  
Sea Level Pressure 29.98 in    
Wind  
Wind Speed 6 mph ()    
Max Wind Speed 13 mph    
Max Gust Speed -    
Visibility 6.8 miles    
Events Rain    
T = Trace of Precipitation, MM = Missing Value Source: Averaged Metar Reports

Daily Weather History Graph

Daily Weather History Graph

Search for Another Location

Airport or City:

Trip Planner

Search our weather history database for the weather conditions in past years. The results will help you decide how hot, cold, wet, or windy it might be!

Date:

Astronomy

Feb. 21, 2013 Rise Set
Actual Time 7:58 AM CET 7:04 PM CET
Civil Twilight 7:32 AM CET 7:30 PM CET
Nautical Twilight 7:02 AM CET 8:01 PM CET
Astronomical Twilight 6:32 AM CET 8:30 PM CET
Moon 3:10 PM CET (2/21) 4:49 AM CET (2/21)
Length of Visible Light 11h 58m
Length of Day
11h 05m
Waxing Gibbous, 82% of the Moon is Illuminated
Feb 21
Waxing Gibbous
Feb 25
Full
Mar 4
Last Quarter
Mar 11
New
Mar 19
First Quarter

Hourly Weather History & Observations

Time (CET) Temp. Windchill Dew Point Humidity Pressure Visibility Wind Dir Wind Speed Gust Speed Precip Events Conditions
12:00 AM 51.8 °F - 42.8 °F 71% 30.04 in 6.2 mi WNW 9.2 mph - N/A   Scattered Clouds
12:30 AM 51.8 °F - 41.0 °F 67% 30.04 in 6.2 mi WNW 10.4 mph - N/A   Scattered Clouds
1:00 AM 54 °F - 42 °F 53% 30.06 in 19 mi WNW 12.7 mph - -   Clear
1:00 AM 53.6 °F - 41.0 °F 62% 30.04 in - WNW 12.7 mph - N/A   Clear
1:30 AM 51.8 °F - 41.0 °F 67% 30.04 in - West 10.4 mph - N/A   Clear
2:00 AM 51.8 °F - 41.0 °F 67% 30.04 in - West 8.1 mph - N/A   Clear
2:30 AM 48.2 °F - 41.0 °F 76% 30.04 in - WNW 3.5 mph - N/A   Clear
3:00 AM 51.8 °F - 39.2 °F 62% 30.04 in - WNW 8.1 mph - N/A   Clear
4:00 AM 46.4 °F 42.9 °F 41.0 °F 81% 30.01 in - WNW 6.9 mph - N/A   Clear
5:00 AM 44.6 °F 41.4 °F 42.8 °F 93% 30.01 in 6.2 mi NW 5.8 mph - N/A   Partly Cloudy
5:30 AM 44.6 °F 41.4 °F 42.8 °F 93% 29.98 in 6.2 mi WNW 5.8 mph - N/A   Partly Cloudy
6:00 AM 44.6 °F - 41.0 °F 87% 30.01 in 6.2 mi Variable 2.3 mph - N/A   Partly Cloudy
6:30 AM 46.4 °F 43.5 °F 42.8 °F 87% 30.01 in 6.2 mi WNW 5.8 mph - N/A   Scattered Clouds
7:00 AM 47 °F - 43 °F 79% 30.02 in 12 mi NW 4.6 mph - -   Overcast
7:00 AM 44.6 °F 41.4 °F 42.8 °F 93% 30.01 in 6.2 mi WNW 5.8 mph - N/A   Scattered Clouds
7:30 AM 44.6 °F 42.2 °F 42.8 °F 93% 30.01 in 6.2 mi WNW 4.6 mph - N/A   Partly Cloudy
8:00 AM 44.6 °F 43.1 °F 42.8 °F 93% 30.01 in 6.2 mi NW 3.5 mph - N/A   Partly Cloudy
8:30 AM 44.6 °F 41.4 °F 42.8 °F 93% 30.01 in 6.2 mi NW 5.8 mph - N/A   Partly Cloudy
9:00 AM 48.2 °F - 42.8 °F 82% 30.01 in 6.2 mi WNW 5.8 mph - N/A   Partly Cloudy
9:30 AM 50.0 °F - 44.6 °F 82% 30.04 in 6.2 mi NW 3.5 mph - N/A   Partly Cloudy
10:00 AM 51.8 °F - 46.4 °F 82% 30.04 in 6.2 mi NW 4.6 mph - N/A   Partly Cloudy
10:30 AM 55.4 °F - 46.4 °F 72% 30.04 in 6.2 mi NW 3.5 mph - N/A   Scattered Clouds
11:00 AM 59.0 °F - 46.4 °F 63% 30.04 in 6.2 mi NNW 3.5 mph - N/A   Scattered Clouds
11:30 AM 60.8 °F - 42.8 °F 52% 30.04 in 6.2 mi Calm Calm - N/A   Scattered Clouds
12:00 PM 60.8 °F - 41.0 °F 48% 30.04 in 6.2 mi SE 3.5 mph - N/A   Partly Cloudy
12:30 PM 60.8 °F - 42.8 °F 52% 30.01 in 6.2 mi ESE 3.5 mph - N/A   Partly Cloudy
1:00 PM 62.6 °F - 42.8 °F 48% 30.01 in 6.2 mi East 3.5 mph - N/A   Partly Cloudy
1:30 PM 62.6 °F - 44.6 °F 52% 29.98 in 6.2 mi Variable 2.3 mph - N/A   Partly Cloudy
2:00 PM 64.4 °F - 46.4 °F 52% 29.98 in 6.2 mi Calm Calm - N/A   Partly Cloudy
2:30 PM 64.4 °F - 48.2 °F 56% 29.95 in 6.2 mi Variable 2.3 mph - N/A   Partly Cloudy
3:00 PM 64.4 °F - 50.0 °F 59% 29.95 in 6.2 mi East 4.6 mph - N/A   Partly Cloudy
3:30 PM 66.2 °F - 50.0 °F 56% 29.95 in 6.2 mi Variable 1.2 mph - N/A   Partly Cloudy
4:00 PM 66.2 °F - 48.2 °F 52% 29.92 in 6.2 mi Variable 1.2 mph - N/A   Partly Cloudy
4:30 PM 68.0 °F - 48.2 °F 49% 29.92 in 6.2 mi Variable 2.3 mph - N/A   Scattered Clouds
5:00 PM 66.2 °F - 51.8 °F 60% 29.92 in 6.2 mi West 9.2 mph - N/A   Scattered Clouds
5:30 PM 64.4 °F - 50.0 °F 59% 29.92 in 6.2 mi West 9.2 mph - N/A   Scattered Clouds
6:00 PM 66.2 °F - 50.0 °F 56% 29.92 in 6.2 mi West 9.2 mph - N/A   Scattered Clouds
6:30 PM 62.6 °F - 53.6 °F 72% 29.92 in 6.2 mi SSW 5.8 mph - N/A   Mostly Cloudy
7:00 PM 62 °F - 52 °F 61% 29.93 in 12 mi SSW 5.8 mph - -   Mostly Cloudy
7:00 PM 60.8 °F - 51.8 °F 72% 29.92 in 6.2 mi SSW 5.8 mph - N/A   Mostly Cloudy
7:30 PM 60.8 °F - 51.8 °F 72% 29.92 in 6.2 mi SSW 2.3 mph - N/A   Mostly Cloudy
8:00 PM 62.6 °F - 51.8 °F 68% 29.92 in 6.2 mi West 1.2 mph - N/A   Mostly Cloudy
8:30 PM 60.8 °F - 53.6 °F 77% 29.92 in 6.2 mi SSW 4.6 mph - N/A   Mostly Cloudy
9:00 PM 60.8 °F - 53.6 °F 77% 29.92 in 6.2 mi SSW 11.5 mph - N/A   Mostly Cloudy
9:30 PM 60.8 °F - 53.6 °F 77% 29.92 in 6.2 mi South 8.1 mph - N/A   Mostly Cloudy
10:00 PM 60.8 °F - 53.6 °F 77% 29.92 in 6.2 mi Calm Calm - N/A   Mostly Cloudy
10:30 PM 60.8 °F - 53.6 °F 77% 29.92 in 6.2 mi WSW 3.5 mph - N/A Rain Rain
10:35 PM 60.8 °F - 53.6 °F 77% 29.92 in 6.2 mi West 3.5 mph - N/A   Mostly Cloudy
11:00 PM 59.0 °F - 55.4 °F 88% 29.89 in 6.2 mi South 3.5 mph - N/A   Mostly Cloudy
11:30 PM 59.0 °F - 53.6 °F 82% 29.92 in 6.2 mi West 6.9 mph - N/A   Mostly Cloudy